Hourly Data Report for January 18, 2022

RANKIN INLET A
NUNAVUT
Current Station Operator: NAVCAN

62°48'38.000" N
92°06'53.000" W
32.30 m
2303405
71083
YRT

Download Data

Hourly Data (January 2022)
Hourly Data Report for January 18, 2022
TIME
LST
Temp Definition
°C
Dew Point Definition
°C
Rel Hum Definition
%
Precip. Amount Definition
mm

Wind Dir Definition
10's deg

Wind Spd Definition
km/h
Visibility Definition
km
Stn Press Definition
kPa
Hmdx Definition


Wind Chill Definition


Weather Definition


00:00 -31.5 -35.6 68   33 50 0.6 100.39   -51 Snow,Blowing Snow
01:00 -30.8 -34.9 68   34 39 0.4 100.39   -48 Snow,Blowing Snow
02:00 -30.4 -34.5 68   33 46 0.8 100.40   -49 Snow,Blowing Snow
03:00 -30.0 -34.1 68   33 35 2.0 100.46   -47 Snow,Blowing Snow
04:00 -30.1 -34.2 69   33 43 1.0 100.42   -48 Snow,Blowing Snow
05:00 -30.2 -34.3 68   32 33 3.2 100.39   -46 Ice Crystals,Blowing Snow
06:00 -30.1 -34.2 68   32 31 3.2 100.37   -46 Ice Crystals,Blowing Snow
07:00 -29.9 -34.1 68   33 34 3.2 100.37   -46 Ice Crystals,Blowing Snow
08:00 -30.3 -34.4 68   33 34 4.8 100.35   -47 Ice Crystals,Blowing Snow
09:00 -31.1 -35.2 68   33 37 4.8 100.33   -48 Ice Crystals,Blowing Snow
10:00 -31.6 -35.8 67   33 31 8.1 100.42   -48 Ice Crystals,Blowing Snow
11:00 -32.1 -36.5 66   33 33 8.1 100.44   -49 Ice Crystals,Blowing Snow
12:00 -32.5 -36.9 66   34 31 16.1 100.47   -49 Ice Crystals,Blowing Snow
13:00 -32.8 -37.3 65   35 33 16.1 100.51   -50 Ice Crystals,Blowing Snow
14:00 -33.2 -37.6 65   36 23 16.1 100.57   -48 Ice Crystals
15:00 -33.4 -37.9 65   34 28 16.1 100.67   -50 Ice Crystals,Blowing Snow
16:00 -33.2 -37.7 65   34 26 24.1 100.73   -49 Ice Crystals,Blowing Snow
17:00 -33.1 -37.6 65   34 26 24.1 100.79   -49 Ice Crystals,Blowing Snow
18:00 -32.4 -36.7 66   33 23 24.1 100.88   -47 Ice Crystals,Blowing Snow
19:00 -32.0 -36.2 67   34 40 6.4 100.82   -50 Ice Crystals,Blowing Snow
20:00 -31.7 -35.9 68   35 45 1.6 100.83   -51 Ice Crystals,Blowing Snow
21:00 -31.7 -35.9 68   35 37 1.2 100.89   -49 Ice Crystals,Blowing Snow
22:00 -31.8 -35.9 68   35 23 2.0 100.98   -46 Ice Crystals,Blowing Snow
23:00 -31.4 -35.5 68   33 19 1.6 101.02   -45 Ice Crystals,Blowing Snow

Notes on Data Quality.

Legend

  • E = Estimated
  • M = Missing
  • NA = Not Available*
  • [empty] = Indicates an unobserved value
Date modified: